This demonstration page uses our WeatherBlox Daily Observations layout. Learn more.

Left ArrowRight Arrow

36.17497, -115.13722

Hourly Observations for March 3, 2015

Temp ( °F °C ) Dew Point ( °F °C ) Humidity (%) Winds ( mph kmh ) Pressure ( in mb ) Visibility ( mi km ) Precip ( " mm )
12:53 am 00:53 Clear 44 6.7 34 1.1 68 68 N 7 11 29.98 1015 10 16 N/A
1:53 am 01:53 Clear 43 6.1 34 1.1 71 71 N 8 13 29.97 1015 10 16 N/A
2:53 am 02:53 Clear 41 5 34 1.1 76 76 NNW 5 7 29.96 1015 10 16 N/A
3:53 am 03:53 Clear 41 5 33 0.6 73 73 NNW 5 7 29.97 1015 10 16 N/A
4:53 am 04:53 Clear 42 5.6 32 undefined 68 68 N 7 11 29.97 1015 10 16 N/A
5:53 am 05:53 Clear 41 5 32 undefined 70 70 N 5 7 29.97 1015 10 16 N/A
6:53 am 06:53 Sunny 41 5 33 0.6 73 73 N 7 11 29.98 1015 10 16 N/A
7:53 am 07:53 Sunny 46 7.8 34 1.1 63 63 N 5 7 29.99 1016 10 16 N/A
8:53 am 08:53 Sunny 48 8.9 37 2.8 66 66 N N/A 30.00 1016 10 16 N/A
9:53 am 09:53 Sunny 51 10.6 36 2.2 56 56 NNE 3 6 29.99 1016 10 16 N/A
10:53 am 10:53 Sunny 52 11.1 36 2.2 55 55 SE 6 9 29.98 1015 10 16 N/A
11:53 am 11:53 Sunny 55 12.8 33 0.6 44 44 SSW 5 7 29.95 1014 10 16 N/A
12:53 pm 12:53 Cloudy with Rain 50 10 39 3.9 66 66 WSW 13 20 29.95 1014 5 8 0.02 0.51
1:07 pm 13:07 Cloudy with Light Rain 50 10 37 2.8 61 61 SSW 8 13 29.88 1012 10 16 N/A
1:53 pm 13:53 Mostly Cloudy 54 12.2 36 2.2 51 51 SSW 13 20 29.90 1012 10 16 0.01 0.25
2:44 pm 14:44 Cloudy with Light Rain 53 11.7 34 1.1 48 48 WNW 10 17 29.85 1011 10 16 N/A
2:53 pm 14:53 Cloudy 54 12.2 33 0.6 45 45 WSW 5 7 29.90 1013 10 16 N/A
3:53 pm 15:53 Sunny 55 12.8 33 0.6 44 44 WNW 7 11 29.91 1013 10 16 N/A
4:53 pm 16:53 Cloudy 54 12.2 32 undefined 43 43 N 12 19 29.90 1013 10 16 N/A
5:53 pm 17:53 Cloudy 53 11.7 34 1.1 48 48 ENE 3 6 29.93 1014 10 16 N/A
6:53 pm 18:53 Cloudy 51 10.6 37 2.8 59 59 E 15 24 29.96 1015 10 16 N/A
7:53 pm 19:53 Cloudy 50 10 37 2.8 61 61 E 13 20 29.97 1015 10 16 N/A
8:53 pm 20:53 Partly Cloudy 49 9.4 36 2.2 61 61 SE 6 9 29.99 1016 10 16 N/A
9:53 pm 21:53 Cloudy 50 10 27 -2.8 41 41 N N/A 30.01 1016 10 16 N/A
10:53 pm 22:53 Cloudy 50 10 21 -6.1 32 32 NNW 7 11 30.03 1017 10 16 N/A
11:53 pm 23:53 Clear 47 8.3 17 -8.3 30 30 N 10 17 30.06 1018 10 16 N/A

Powered by AerisWeather